Terminal Aerodrome Forecast
Issued by NWS Jacksonville, FL

Home | Current Version | Previous Version | Text Only | Print | Product List | Glossary On
Versions: 1 2 3 4 5 6 7 8 9 10 11 12 13 14 15 16 17 18 19
000
FTUS42 KJAX 282300 RRA
TAFGNV
TAF
KGNV 282342Z 2900/2924 25003KT P6SM FEW030 BKN250
     FM290200 23003KT 5SM BR SCT005 BKN250
     FM290400 21002KT 1/2SM FG OVC001
     FM291500 21010KT P6SM VCSH BKN015 OVC030=

USA.gov is the U.S. government's official web portal to all federal, state and local government web resources and services.